Regional Weather Roundup
Issued by NWS

Home | Current Version | Previous Version | Graphics & Text | Print | Product List | Glossary On
Versions: 1 2 3 4 5 6 7 8 9 10 11 12 13 14 15 16 17 18 19 20 21 22 23 24 25 26
000
ASUS45 KCYS 270010
RWRWY

WYOMING REGIONAL WEATHER ROUNDUP
NATIONAL WEATHER SERVICE CHEYENNE WY
600 PM MDT WED JUL 26 2017

NOTE:  "FAIR" INDICATES FEW OR NO CLOUDS BELOW 12,000 FEET
WITH NO SIGNIFICANT WEATHER AND/OR OBSTRUCTIONS TO VISIBILITY.

WYZ001-270100-
YELLOWSTONE NATIONAL PARK

CITY           SKY/WX    TMP DP  RH WIND       PRES   REMARKS
LK YELLOWSTONE   N/A     66  49  54 CALM      30.38F
6HR MIN TEMP:  61; 6HR MAX TEMP:  70;

W YELLOWSTONE  NOT AVBL

$$
WYZ002>013-054>058-071-098>099-270100-
NORTHERN WYOMING

CITY           SKY/WX    TMP DP  RH WIND       PRES   REMARKS
JACKSON        MOSUNNY   72  54  53 SW6       30.28S
CODY           FAIR      80  49  33 S12       30.16S
GREYBULL       FAIR      88  47  24 VRB3      30.05F
6HR MIN TEMP:  78; 6HR MAX TEMP:  89;

WORLAND        FAIR      86  50  28 NW3       30.07F
6HR MIN TEMP:  81; 6HR MAX TEMP:  89;

SHERIDAN       FAIR      83  53  35 SE14      30.09F
6HR MIN TEMP:  83; 6HR MAX TEMP:  89;

BUFFALO        FAIR      81  51  35 S9        30.18F
6HR MIN TEMP:  77; 6HR MAX TEMP:  84; 6HR PCP: TRACE;

GILLETTE       FAIR      82  52  35 SE15      30.16S
6HR MIN TEMP:  77; 6HR MAX TEMP:  84;

HULETT         FAIR      81  54  39 S9        30.18S
NEWCASTLE      FAIR      82  43  24 S12G21    30.18F

$$
WYZ014>020-022>026-101>103-270100-
CENTRAL WYOMING

CITY           SKY/WX    TMP DP  RH WIND       PRES   REMARKS
BIG PINEY      FAIR      72  51  47 SW8       30.32F
6HR MIN TEMP:  64; 6HR MAX TEMP:  74; 6HR PCP: TRACE;

PINEDALE       FAIR      73  43  33 W6        30.32F
DUBOIS         FAIR      70  43  37 SE9       30.31S
LANDER         FAIR      73  55  53 NW8       30.21R
6HR MIN TEMP:  73; 6HR MAX TEMP:  82;

RIVERTON       FAIR      77  52  41 NW12      30.19F
6HR MIN TEMP:  75; 6HR MAX TEMP:  83; 6HR PCP: TRACE;

CASPER         FAIR      79  57  46 E14       30.19F
6HR MIN TEMP:  66; 6HR MAX TEMP:  81;

DOUGLAS        FAIR      75  54  47 SE16      30.23F
6HR MIN TEMP:  64; 6HR MAX TEMP:  77;


$$
WYZ021-027>030-104>119-270100-
SOUTHERN WYOMING

CITY           SKY/WX    TMP DP  RH WIND       PRES   REMARKS
EVANSTON       FAIR      76  51  41 NW7       30.31F
6HR MIN TEMP:  65; 6HR MAX TEMP:  78; 6HR PCP: TRACE;

KEMMERER         N/A     73  46  38 CALM      30.33F
FORT BRIDGER   FAIR      74  54  50 E6        30.34F
ROCK SPRINGS   FAIR      68  56  65 E6        30.32F
6HR MIN TEMP:  62; 6HR MAX TEMP:  78; 6HR PCP:  0.06;

RAWLINS        LGT RAIN  66  58  75 SW20      30.31R
6HR MIN TEMP:  66; 6HR MAX TEMP:  78; 6HR PCP: TRACE;

LARAMIE        RAIN      61  58  90 SE15      30.35S FOG
6HR MIN TEMP:  61; 6HR MAX TEMP:  74; 6HR PCP:  0.08;

CHEYENNE       LGT RAIN  69  55  60 NE9       30.30S
6HR MIN TEMP:  64; 6HR MAX TEMP:  73; 6HR PCP: TRACE;

TORRINGTON     FAIR      78  52  40 E8        30.18S
6HR MIN TEMP:  77; 6HR MAX TEMP:  81; 6HR PCP: TRACE;

PINE BLUFFS    MOCLDY    77  54  44 NE15      30.24S

$$




USA.gov is the U.S. government's official web portal to all federal, state and local government web resources and services.